Time,TemperatureF,DewpointF,PressureIn,WindDirection,WindDirectionDegrees,WindSpeedMPH,WindSpeedGustMPH,Humidity,HourlyPrecipIn,Conditions,Clouds,dailyrainin,SoftwareType,DateUTC
2013-06-28 00:04:00,71.8,72.0,29.88,NNE,18,5.0,-999.0,100,-99.99,,,0.00,weatherlink.com 1.10,2013-06-27 21:04:00,
2013-06-28 00:34:00,71.6,72.0,29.87,NNE,23,2.0,-999.0,100,-99.99,,,0.00,weatherlink.com 1.10,2013-06-27 21:34:00,
2013-06-28 00:49:00,71.3,71.0,29.87,NNE,30,0.0,-999.0,100,-99.99,,,0.00,weatherlink.com 1.10,2013-06-27 21:49:00,
2013-06-28 01:34:00,71.1,71.0,29.88,NNE,25,0.0,-999.0,100,-99.99,,,0.00,weatherlink.com 1.10,2013-06-27 22:34:00,
2013-06-28 01:49:00,71.5,72.0,29.88,NNE,25,0.0,-999.0,100,-99.99,,,0.00,weatherlink.com 1.10,2013-06-27 22:49:00,
2013-06-28 02:19:00,71.8,72.0,29.88,NNE,25,0.0,-999.0,100,-99.99,,,0.00,weatherlink.com 1.10,2013-06-27 23:19:00,
2013-06-28 02:34:00,71.5,72.0,29.88,NNE,16,4.0,-999.0,100,-99.99,,,0.00,weatherlink.com 1.10,2013-06-27 23:34:00,
2013-06-28 02:49:00,71.6,72.0,29.88,North,7,0.0,-999.0,100,-99.99,,,0.00,weatherlink.com 1.10,2013-06-27 23:49:00,
2013-06-28 03:04:00,72.0,72.0,29.87,NNE,20,5.0,-999.0,100,-99.99,,,0.00,weatherlink.com 1.10,2013-06-28 00:04:00,
2013-06-28 03:19:00,72.1,72.0,29.87,North,1,0.0,-999.0,100,-99.99,,,0.00,weatherlink.com 1.10,2013-06-28 00:19:00,
2013-06-28 03:34:00,72.1,72.0,29.86,North,3,1.0,-999.0,100,-99.99,,,0.00,weatherlink.com 1.10,2013-06-28 00:34:00,
2013-06-28 03:49:00,72.3,72.0,29.86,North,0,3.0,-999.0,100,-99.99,,,0.00,weatherlink.com 1.10,2013-06-28 00:49:00,
2013-06-28 04:04:00,72.5,73.0,29.86,NNE,28,12.0,-999.0,100,-99.99,,,0.00,weatherlink.com 1.10,2013-06-28 01:04:00,
2013-06-28 04:19:00,72.8,73.0,29.86,NNE,32,5.0,-999.0,100,-99.99,,,0.00,weatherlink.com 1.10,2013-06-28 01:19:00,
2013-06-28 04:34:00,72.8,73.0,29.86,NNE,30,6.0,-999.0,100,-99.99,,,0.00,weatherlink.com 1.10,2013-06-28 01:34:00,
2013-06-28 04:49:00,73.0,73.0,29.86,North,7,5.0,-999.0,100,-99.99,,,0.00,weatherlink.com 1.10,2013-06-28 01:49:00,
2013-06-28 05:04:00,73.0,73.0,29.87,NNE,28,7.0,-999.0,100,-99.99,,,0.00,weatherlink.com 1.10,2013-06-28 02:04:00,
2013-06-28 05:19:00,73.2,73.0,29.86,North,353,5.0,-999.0,100,-99.99,,,0.00,weatherlink.com 1.10,2013-06-28 02:19:00,
2013-06-28 05:49:00,72.8,73.0,29.86,North,359,9.0,-999.0,100,-99.99,,,0.00,weatherlink.com 1.10,2013-06-28 02:49:00,
2013-06-28 06:19:00,72.5,73.0,29.86,NNE,21,10.0,-999.0,100,-99.99,,,0.00,weatherlink.com 1.10,2013-06-28 03:19:00,
2013-06-28 06:34:00,72.3,72.0,29.86,NNE,17,10.0,-999.0,100,-99.99,,,0.00,weatherlink.com 1.10,2013-06-28 03:34:00,
2013-06-28 06:49:00,72.3,72.0,29.86,North,356,7.0,-999.0,100,-99.99,,,0.00,weatherlink.com 1.10,2013-06-28 03:49:00,
2013-06-28 07:04:00,72.3,72.0,29.87,North,353,11.0,-999.0,100,-99.99,,,0.00,weatherlink.com 1.10,2013-06-28 04:04:00,
2013-06-28 07:19:00,72.1,72.0,29.87,North,0,7.0,-999.0,100,-99.99,,,0.00,weatherlink.com 1.10,2013-06-28 04:19:00,
2013-06-28 07:34:00,72.3,72.0,29.87,North,357,8.0,-999.0,100,-99.99,,,0.00,weatherlink.com 1.10,2013-06-28 04:34:00,
2013-06-28 07:49:00,72.3,72.0,29.87,NNW,335,9.0,-999.0,100,-99.99,,,0.00,weatherlink.com 1.10,2013-06-28 04:49:00,
2013-06-28 08:04:00,72.3,72.0,29.88,NNW,343,8.0,-999.0,100,-99.99,,,0.00,weatherlink.com 1.10,2013-06-28 05:04:00,
2013-06-28 08:19:00,72.7,73.0,29.87,NE,45,0.0,-999.0,100,-99.99,,,0.00,weatherlink.com 1.10,2013-06-28 05:19:00,
2013-06-28 08:34:00,72.7,73.0,29.88,NNW,342,0.0,-999.0,100,-99.99,,,0.00,weatherlink.com 1.10,2013-06-28 05:34:00,
2013-06-28 08:49:00,72.8,73.0,29.88,NE,48,6.0,-999.0,100,-99.99,,,0.00,weatherlink.com 1.10,2013-06-28 05:49:00,
2013-06-28 09:04:00,73.0,73.0,29.88,NNW,339,9.0,-999.0,100,-99.99,,,0.00,weatherlink.com 1.10,2013-06-28 06:04:00,
2013-06-28 09:19:00,72.8,73.0,29.88,NNE,24,16.0,-999.0,100,-99.99,,,0.00,weatherlink.com 1.10,2013-06-28 06:19:00,
2013-06-28 09:34:00,72.8,73.0,29.88,NNE,20,12.0,-999.0,100,-99.99,,,0.00,weatherlink.com 1.10,2013-06-28 06:34:00,
2013-06-28 09:49:00,72.7,73.0,29.88,North,352,6.0,-999.0,100,-99.99,,,0.00,weatherlink.com 1.10,2013-06-28 06:49:00,
2013-06-28 10:04:00,72.0,72.0,29.88,North,11,7.0,-999.0,100,-99.99,,,0.00,weatherlink.com 1.10,2013-06-28 07:04:00,
2013-06-28 10:19:00,72.0,72.0,29.88,North,11,5.0,-999.0,100,-99.99,,,0.00,weatherlink.com 1.10,2013-06-28 07:19:00,
2013-06-28 10:34:00,72.0,72.0,29.88,NNE,17,6.0,-999.0,100,-99.99,,,0.00,weatherlink.com 1.10,2013-06-28 07:34:00,
2013-06-28 10:49:00,71.3,71.0,29.89,NNE,16,7.0,-999.0,100,-99.99,,,0.00,weatherlink.com 1.10,2013-06-28 07:49:00,
2013-06-28 11:04:00,71.3,71.0,29.89,North,6,6.0,-999.0,100,-99.99,,,0.00,weatherlink.com 1.10,2013-06-28 08:04:00,
2013-06-28 11:19:00,71.8,72.0,29.88,NNE,23,11.0,-999.0,100,-99.99,,,0.00,weatherlink.com 1.10,2013-06-28 08:19:00,
2013-06-28 11:34:00,71.6,72.0,29.89,North,0,11.0,-999.0,100,-99.99,,,0.00,weatherlink.com 1.10,2013-06-28 08:34:00,
2013-06-28 11:49:00,71.6,72.0,29.89,North,352,3.0,-999.0,100,-99.99,,,0.00,weatherlink.com 1.10,2013-06-28 08:49:00,
2013-06-28 12:05:00,71.5,72.0,29.89,North,11,5.0,-999.0,100,-99.99,,,0.00,weatherlink.com 1.10,2013-06-28 09:05:00,
2013-06-28 12:20:00,71.6,72.0,29.89,North,354,6.0,-999.0,100,-99.99,,,0.00,weatherlink.com 1.10,2013-06-28 09:20:00,
2013-06-28 12:35:00,72.0,72.0,29.89,WNW,288,6.0,-999.0,100,-99.99,,,0.00,weatherlink.com 1.10,2013-06-28 09:35:00,
2013-06-28 12:50:00,72.1,72.0,29.89,NE,54,1.0,-999.0,100,-99.99,,,0.00,weatherlink.com 1.10,2013-06-28 09:50:00,
2013-06-28 13:05:00,72.0,72.0,29.90,North,357,5.0,-999.0,100,-99.99,,,0.00,weatherlink.com 1.10,2013-06-28 10:05:00,
2013-06-28 13:20:00,72.1,72.0,29.90,West,263,6.0,-999.0,100,-99.99,,,0.00,weatherlink.com 1.10,2013-06-28 10:20:00,
2013-06-28 13:35:00,72.0,72.0,29.90,NNW,337,2.0,-999.0,100,-99.99,,,0.00,weatherlink.com 1.10,2013-06-28 10:35:00,
2013-06-28 13:50:00,71.5,72.0,29.90,NE,38,5.0,-999.0,100,-99.99,,,0.00,weatherlink.com 1.10,2013-06-28 10:50:00,
2013-06-28 14:05:00,71.3,71.0,29.90,WSW,257,6.0,-999.0,100,-99.99,,,0.00,weatherlink.com 1.10,2013-06-28 11:05:00,
2013-06-28 14:20:00,71.1,71.0,29.90,NW,315,5.0,-999.0,100,-99.99,,,0.00,weatherlink.com 1.10,2013-06-28 11:20:00,
2013-06-28 14:35:00,71.3,71.0,29.90,North,11,9.0,-999.0,100,-99.99,,,0.00,weatherlink.com 1.10,2013-06-28 11:35:00,
2013-06-28 14:50:00,71.6,72.0,29.89,North,6,18.0,-999.0,100,-99.99,,,0.00,weatherlink.com 1.10,2013-06-28 11:50:00,
2013-06-28 15:05:00,71.8,72.0,29.89,North,0,9.0,-999.0,100,-99.99,,,0.00,weatherlink.com 1.10,2013-06-28 12:05:00,
2013-06-28 15:20:00,72.3,72.0,29.88,North,354,11.0,-999.0,100,-99.99,,,0.00,weatherlink.com 1.10,2013-06-28 12:20:00,
2013-06-28 15:35:00,72.8,73.0,29.87,NE,44,2.0,-999.0,100,-99.99,,,0.00,weatherlink.com 1.10,2013-06-28 12:35:00,
2013-06-28 15:50:00,72.7,73.0,29.87,North,6,6.0,-999.0,100,-99.99,,,0.00,weatherlink.com 1.10,2013-06-28 12:50:00,
2013-06-28 16:05:00,72.5,73.0,29.87,NNE,24,3.0,-999.0,100,-99.99,,,0.00,weatherlink.com 1.10,2013-06-28 13:05:00,
2013-06-28 16:20:00,72.7,73.0,29.87,WSW,254,5.0,-999.0,100,-99.99,,,0.00,weatherlink.com 1.10,2013-06-28 13:20:00,
2013-06-28 16:35:00,72.5,73.0,29.87,North,357,4.0,-999.0,100,-99.99,,,0.00,weatherlink.com 1.10,2013-06-28 13:35:00,
2013-06-28 16:50:00,72.7,73.0,29.87,North,8,7.0,-999.0,100,-99.99,,,0.00,weatherlink.com 1.10,2013-06-28 13:50:00,
2013-06-28 17:05:00,72.8,73.0,29.87,NNE,27,10.0,-999.0,100,-99.99,,,0.00,weatherlink.com 1.10,2013-06-28 14:05:00,
2013-06-28 17:20:00,72.8,73.0,29.87,NNE,20,8.0,-999.0,100,-99.99,,,0.00,weatherlink.com 1.10,2013-06-28 14:20:00,
2013-06-28 17:35:00,73.3,73.0,29.86,NNW,332,5.0,-999.0,100,-99.99,,,0.00,weatherlink.com 1.10,2013-06-28 14:35:00,
2013-06-28 17:50:00,73.3,73.0,29.86,North,7,10.0,-999.0,100,-99.99,,,0.00,weatherlink.com 1.10,2013-06-28 14:50:00,
2013-06-28 18:05:00,73.5,74.0,29.87,NNE,20,7.0,-999.0,100,-99.99,,,0.00,weatherlink.com 1.10,2013-06-28 15:05:00,
2013-06-28 18:20:00,73.9,74.0,29.86,NE,34,1.0,-999.0,100,-99.99,,,0.00,weatherlink.com 1.10,2013-06-28 15:20:00,
2013-06-28 18:35:00,73.9,74.0,29.86,North,8,0.0,-999.0,100,-99.99,,,0.00,weatherlink.com 1.10,2013-06-28 15:35:00,
2013-06-28 18:50:00,73.7,74.0,29.86,North,0,7.0,-999.0,100,-99.99,,,0.00,weatherlink.com 1.10,2013-06-28 15:50:00,
2013-06-28 19:05:00,73.5,74.0,29.86,NNE,24,6.0,-999.0,100,-99.99,,,0.00,weatherlink.com 1.10,2013-06-28 16:05:00,
2013-06-28 19:20:00,73.3,73.0,29.86,NNE,25,4.0,-999.0,100,-99.99,,,0.00,weatherlink.com 1.10,2013-06-28 16:20:00,
2013-06-28 19:35:00,73.3,73.0,29.86,NNW,337,4.0,-999.0,100,-99.99,,,0.00,weatherlink.com 1.10,2013-06-28 16:35:00,
2013-06-28 19:50:00,73.2,73.0,29.86,North,3,0.0,-999.0,100,-99.99,,,0.00,weatherlink.com 1.10,2013-06-28 16:50:00,
2013-06-28 20:05:00,73.2,73.0,29.86,North,11,5.0,-999.0,100,-99.99,,,0.00,weatherlink.com 1.10,2013-06-28 17:05:00,
2013-06-28 20:20:00,73.0,73.0,29.86,North,6,5.0,-999.0,100,-99.99,,,0.00,weatherlink.com 1.10,2013-06-28 17:20:00,
2013-06-28 20:35:00,72.8,73.0,29.86,North,357,2.0,-999.0,100,-99.99,,,0.00,weatherlink.com 1.10,2013-06-28 17:35:00,
2013-06-28 20:50:00,72.8,73.0,29.86,WNW,302,0.0,-999.0,100,-99.99,,,0.00,weatherlink.com 1.10,2013-06-28 17:50:00,
2013-06-28 21:05:00,72.7,73.0,29.86,NW,322,0.0,-999.0,100,-99.99,,,0.00,weatherlink.com 1.10,2013-06-28 18:05:00,
2013-06-28 21:20:00,72.7,73.0,29.86,NNW,343,5.0,-999.0,100,-99.99,,,0.00,weatherlink.com 1.10,2013-06-28 18:20:00,
2013-06-28 21:35:00,72.5,73.0,29.87,North,0,1.0,-999.0,100,-99.99,,,0.00,weatherlink.com 1.10,2013-06-28 18:35:00,
2013-06-28 21:50:00,72.7,73.0,29.87,North,353,0.0,-999.0,100,-99.99,,,0.00,weatherlink.com 1.10,2013-06-28 18:50:00,
2013-06-28 22:05:00,72.7,73.0,29.88,North,349,0.0,-999.0,100,-99.99,,,0.00,weatherlink.com 1.10,2013-06-28 19:05:00,
2013-06-28 22:20:00,72.5,73.0,29.88,NNW,339,5.0,-999.0,100,-99.99,,,0.00,weatherlink.com 1.10,2013-06-28 19:20:00,
2013-06-28 22:35:00,72.5,73.0,29.88,North,8,5.0,-999.0,100,-99.99,,,0.00,weatherlink.com 1.10,2013-06-28 19:35:00,
2013-06-28 22:50:00,72.5,73.0,29.88,North,359,3.0,-999.0,100,-99.99,,,0.00,weatherlink.com 1.10,2013-06-28 19:50:00,
2013-06-28 23:05:00,72.5,73.0,29.88,North,0,0.0,-999.0,100,-99.99,,,0.00,weatherlink.com 1.10,2013-06-28 20:05:00,
2013-06-28 23:20:00,72.5,73.0,29.88,North,0,0.0,-999.0,100,-99.99,,,0.00,weatherlink.com 1.10,2013-06-28 20:20:00,
2013-06-28 23:35:00,72.5,73.0,29.87,NNE,18,6.0,-999.0,100,-99.99,,,0.00,weatherlink.com 1.10,2013-06-28 20:35:00,
2013-06-28 23:50:00,72.5,73.0,29.87,North,0,0.0,-999.0,100,-99.99,,,0.00,weatherlink.com 1.10,2013-06-28 20:50:00,